Location: Cazarilh
(42.9578°N, 0.5819°E)
Time: 00:56:00
(UTC+00:00)

STARLINK 1064 - Pass Details

Date: 11 December 2019
Orbit: 549 x 550 km, 53.0° (Epoch: 27 January)

Event Time Altitude Azimuth Distance (km) Brightness Sun altitude
Exits shadow 05:15:04 71° 314° (NW) 594 3.5 -21.7°
Maximum altitude 05:15:31 87° 37° (NE) 564 3.5 -21.6°
Drops below altitude 10° 05:19:42 10° 126° (SE) 1,839 7.2 -20.9°
Sets 05:21:56 0° 127° (SE) 2,730 8.3 -20.5°
